Date String (YYYY-MM-DD hh:mm:ss) UTC,Instrument flags,Ambient pressure (hPa),Sample flow (lpm),Bypass flow (lpm),Sample temperature (°C),Ambient temperature (°C),ASC tube jacket temperature (°C),LED temperature (°C),Box temperature (°C),Sample RH (%),Span deviation,Mass concentration (μg/m³),Mass concentration (μg/m³),Mass concentration (μg/m³)
DateTimeUTC,F1_M11,P_M11,Q1_M11,Q2_M11,T1_M11,T2_M11,T3_M11,T4_M11,T5_M11,U1_M11,ZSPAN_M11,X0_M11,X2_M11,X1_M11
2022-09-12 21:00:00,,0827.2,4.98,0.00,29.6,28.2,00.0,38.2,31.5,08.7,0001.7,0015.57,0009.36,0008.77
2022-09-12 21:01:00,,0827.2,5.01,0.00,29.7,28.4,00.0,38.2,31.6,08.4,0001.4,0015.49,0009.34,0008.77
2022-09-12 21:02:00,,0827.2,5.01,0.00,29.7,28.6,00.0,38.3,31.6,08.2,0001.8,0014.75,0009.34,0008.77
2022-09-12 21:03:00,,0827.2,4.98,0.00,29.8,28.3,00.0,38.3,31.7,08.6,0002.5,0014.55,0009.34,0008.78
2022-09-12 21:04:00,,0827.2,5.00,0.00,29.7,27.1,00.0,38.3,31.6,08.6,0002.8,0014.26,0009.31,0008.77
2022-09-12 21:05:00,,0827.2,5.01,0.00,29.7,26.5,00.0,38.2,31.5,09.5,0003.2,0014.24,0009.25,0008.74
2022-09-12 21:06:00,,0827.2,5.00,0.00,29.6,26.7,00.0,38.2,31.4,09.9,0002.6,0014.36,0009.20,0008.74
2022-09-12 21:07:00,,0827.2,4.99,0.00,29.6,27.0,00.0,38.2,31.3,08.9,0002.2,0014.10,0009.15,0008.71
2022-09-12 21:08:00,,0827.2,5.01,0.00,29.6,27.3,00.0,38.2,31.3,08.7,0001.6,0014.10,0009.12,0008.69
2022-09-12 21:09:00,,0827.2,5.00,0.00,29.6,27.6,00.0,38.2,31.3,09.5,0001.2,0014.50,0009.07,0008.67
2022-09-12 21:10:00,,0827.2,5.00,0.00,29.6,27.8,00.0,38.2,31.4,09.7,0000.9,0014.76,0009.07,0008.67
2022-09-12 21:11:00,,0827.2,5.00,0.00,29.6,28.1,00.0,38.2,31.5,09.4,0000.4,0014.96,0009.07,0008.66
2022-09-12 21:12:00,,0827.2,5.00,0.00,29.6,28.3,00.0,38.2,31.5,09.3,0000.2,0014.95,0009.02,0008.63
2022-09-12 21:13:00,,0827.2,4.99,0.00,29.7,28.5,00.0,38.3,31.6,09.7,-000.2,0014.93,0009.00,0008.60
2022-09-12 21:14:00,,0827.2,5.01,0.00,29.7,28.7,00.0,38.3,31.7,09.1,-000.5,0014.94,0009.00,0008.57
2022-09-12 21:15:00,,0827.2,5.00,0.00,29.8,28.0,00.0,38.3,31.7,09.0,-000.6,0014.88,0008.98,0008.55
2022-09-12 21:16:00,,0827.2,5.00,0.00,29.7,26.8,00.0,38.3,31.6,09.3,-000.8,0014.91,0008.97,0008.54
2022-09-12 21:17:00,,0827.1,5.00,0.00,29.7,26.5,00.0,38.2,31.5,09.8,-000.4,0015.10,0009.00,0008.52
2022-09-12 21:18:00,,0827.1,5.00,0.00,29.6,26.8,00.0,38.2,31.4,10.0,0000.2,0015.79,0009.05,0008.54
2022-09-12 21:19:00,,0827.1,4.99,0.00,29.6,27.1,00.0,38.2,31.2,10.0,0000.9,0017.26,0009.08,0008.57
2022-09-12 21:20:00,,0827.1,5.00,0.00,29.6,27.4,00.0,38.2,31.3,09.7,0002.3,0017.01,0009.09,0008.58
2022-09-12 21:21:00,,0827.1,5.00,0.00,29.6,27.7,00.0,38.2,31.4,09.4,0002.4,0018.05,0009.10,0008.59
2022-09-12 21:22:00,,0827.1,5.01,0.00,29.6,27.9,00.0,38.2,31.4,09.3,0002.1,0017.87,0009.08,0008.60
2022-09-12 21:23:00,,0827.1,4.98,0.00,29.6,28.2,00.0,38.2,31.5,09.0,0002.5,0017.56,0009.09,0008.60
2022-09-12 21:24:00,,0827.2,5.01,0.00,29.7,28.3,00.0,38.3,31.6,08.9,0003.2,0017.81,0009.09,0008.59
2022-09-12 21:25:00,,0827.4,5.00,0.00,29.7,28.4,00.0,38.3,31.6,08.6,0003.3,0017.95,0009.07,0008.60
2022-09-12 21:26:00,,0827.1,4.98,0.00,29.7,27.5,00.0,38.3,31.6,09.2,0003.7,0017.73,0009.03,0008.59
2022-09-12 21:27:00,,0827.0,5.00,0.00,29.7,26.4,00.0,38.2,31.5,08.9,0004.0,0018.69,0009.05,0008.59
2022-09-12 21:28:00,,0827.1,5.01,0.00,29.6,26.5,00.0,38.2,31.5,09.8,0004.4,0018.63,0009.03,0008.60
2022-09-12 21:29:00,,0827.0,5.00,0.00,29.6,26.8,00.0,38.2,31.3,09.2,0004.1,0017.79,0008.99,0008.60
2022-09-12 21:30:00,,0826.9,4.99,0.00,29.5,27.1,00.0,38.2,31.2,09.1,0003.9,0016.25,0008.96,0008.57
2022-09-12 21:31:00,,0827.2,5.00,0.00,29.5,27.4,00.0,38.2,31.3,09.0,0003.5,0016.20,0008.99,0008.57
2022-09-12 21:32:00,,0827.1,5.00,0.00,29.5,27.7,00.0,38.2,31.3,09.8,0003.4,0014.72,0008.99,0008.56
2022-09-12 21:33:00,,0827.1,5.01,0.00,29.6,28.0,00.0,38.2,31.4,09.5,0003.8,0014.85,0009.01,0008.55
2022-09-12 21:34:00,,0827.0,5.02,0.00,29.6,28.2,00.0,38.2,31.5,09.2,0003.7,0015.19,0009.01,0008.54
2022-09-12 21:35:00,,0827.0,4.99,0.00,29.6,28.4,00.0,38.2,31.5,08.8,0003.4,0015.30,0009.01,0008.53
2022-09-12 21:36:00,,0827.1,5.00,0.00,29.7,28.5,00.0,38.2,31.6,08.7,0003.1,0015.11,0009.02,0008.52
2022-09-12 21:37:00,,0827.2,4.99,0.00,29.7,28.4,00.0,38.3,31.7,08.8,0003.2,0015.17,0009.05,0008.51
2022-09-12 21:38:00,,0827.0,5.00,0.00,29.7,27.3,00.0,38.3,31.6,09.6,0002.9,0014.77,0009.06,0008.50
2022-09-12 21:39:00,,0827.1,5.00,0.00,29.7,26.6,00.0,38.2,31.5,08.9,0002.2,0014.12,0009.05,0008.48
2022-09-12 21:40:00,,0827.1,5.00,0.00,29.6,26.8,00.0,38.2,31.5,09.1,0002.5,0014.14,0009.03,0008.47
2022-09-12 21:41:00,,0827.2,5.00,0.00,29.6,27.0,00.0,38.2,31.3,09.2,0003.2,0014.45,0009.04,0008.46
2022-09-12 21:42:00,,0827.1,5.01,0.00,29.6,27.3,00.0,38.2,31.3,09.3,0003.5,0015.07,0009.01,0008.44
2022-09-12 21:43:00,,0827.0,5.00,0.00,29.6,27.6,00.0,38.2,31.3,10.0,0004.3,0014.94,0008.97,0008.43
2022-09-12 21:44:00,,0827.0,5.00,0.00,29.6,27.9,00.0,38.2,31.4,09.9,0004.6,0014.83,0008.93,0008.41
2022-09-12 21:45:00,,0827.0,5.01,0.00,29.6,28.1,00.0,38.2,31.4,09.7,0005.0,0014.60,0008.92,0008.39
2022-09-12 21:46:00,,0826.9,5.01,0.00,29.6,28.3,00.0,38.3,31.5,09.5,0004.8,0014.65,0008.92,0008.40
2022-09-12 21:47:00,,0826.9,4.98,0.00,29.7,28.5,00.0,38.3,31.6,09.0,0004.7,0014.47,0008.90,0008.41
2022-09-12 21:48:00,,0826.9,5.00,0.00,29.7,28.5,00.0,38.3,31.7,09.1,0004.6,0014.22,0008.89,0008.43
2022-09-12 21:49:00,,0826.9,4.99,0.00,29.8,27.5,00.0,38.3,31.7,09.6,0004.6,0014.22,0008.89,0008.44
2022-09-12 21:50:00,,0826.9,5.02,0.00,29.7,26.5,00.0,38.3,31.5,10.3,0004.8,0014.57,0008.91,0008.43
2022-09-12 21:51:00,,0826.8,5.00,0.00,29.7,26.6,00.0,38.2,31.5,09.4,0004.4,0015.54,0008.92,0008.41
2022-09-12 21:52:00,,0826.9,5.00,0.00,29.6,26.9,00.0,38.2,31.3,09.5,0004.6,0016.99,0008.90,0008.41
2022-09-12 21:53:00,,0826.8,4.98,0.00,29.6,27.2,00.0,38.2,31.3,09.1,0004.2,0016.75,0008.90,0008.42
2022-09-12 21:54:00,,0826.8,5.01,0.00,29.6,27.5,00.0,38.2,31.3,09.4,0003.1,0017.04,0008.90,0008.41
2022-09-12 21:55:00,,0826.9,5.00,0.00,29.6,27.8,00.0,38.2,31.4,09.3,0002.4,0017.41,0008.89,0008.40
2022-09-12 21:56:00,,0826.9,5.00,0.00,29.6,28.0,00.0,38.2,31.5,09.2,0001.7,0018.03,0008.89,0008.39
2022-09-12 21:57:00,,0826.9,4.99,0.00,29.6,28.2,00.0,38.2,31.5,09.4,0001.8,0017.69,0008.91,0008.41
2022-09-12 21:58:00,,0826.9,5.00,0.00,29.7,28.4,00.0,38.3,31.6,09.4,0001.7,0017.66,0008.91,0008.38
2022-09-12 21:59:00,,0826.9,4.99,0.00,29.7,28.6,00.0,38.3,31.7,10.1,0001.2,0017.67,0008.88,0008.37
